QPF
0.00 0.00 0.00 0.00 0.00 0.00 0.00 0.00 0.02 0.06 0.11 0.27 0.09 0.11 0.08 0.02 0.00 0.00 0.00 0.00 0.00 0.01 0.02 0.06 0.05 0.00 0.00 0.00 0.00 0.00 0.00 0.00 0.00
0.00 0.00 0.00 0.00 0.00 0.00 0.04 0.03 0.04 0.02 0.05 0.08 0.10 0.07 0.01 0.00 0.02 0.01 0.00 0.00 0.00 0.00 0.00 0.00 0.00 0.00 0.00 0.00 0.00 0.00 0.00 0.00 0.00
0.00 0.00 0.00 0.00 0.00 0.00 0.02 0.06 0.09 0.33 0.42 0.20 0.14 0.01 0.00 0.01 0.00 0.00 0.00 0.00 0.00 0.00 0.00 0.00 0.00 0.00 0.00 0.00 0.00 0.00 0.00 0.00 0.00
0.00 0.00 0.00 0.00 0.00 0.02 0.03 0.05 0.14 0.46 0.39 0.25 0.05 0.00 0.00 0.00 0.00 0.00 0.00 0.00 0.00 0.00 0.00 0.00 0.00 0.00 0.00 0.00 0.00 0.00 0.00 0.00 0.00
0.00 0.00 0.00 0.00 0.00 0.00 0.02 0.01 0.07 0.09 0.03 0.02 0.00 0.00 0.00 0.00 0.00 0.00 0.00 0.00 0.00 0.00 0.00 0.00 0.00 0.00 0.00 0.00 0.00 0.00 0.00 0.00 0.00
0.00 0.00 0.00 0.00 0.00 0.00 0.02 0.03 0.05 0.04 0.00 0.00 0.00 0.00 0.00 0.00 0.00 0.00 0.00 0.00 0.00 0.00 0.00 0.00 0.00 0.00 0.00 0.00 0.00 0.00 0.00 0.00 0.00
0.00 0.00 0.00 0.00 0.00 0.00 0.00 0.00 0.01 0.00 0.00 0.00 0.00 0.00 0.00 0.00 0.00 0.00 0.00 0.00 0.00 0.00 0.00 0.00 0.00 0.00 0.00 0.00 0.00 0.00 0.00 0.00 0.00
0.00 0.00 0.00 0.00 0.00 0.00 0.00 0.00 0.00 0.00 0.00 0.00 0.00 0.00 0.00 0.00 0.00 0.00 0.00 0.00 0.00 0.00 0.00 0.00 0.00 0.00 0.00 0.00 0.00 0.00 0.00 0.00 0.00
0.00 0.00 0.00 0.00 0.00 0.00 0.00 0.00 0.00 0.00 0.00 0.00 0.00 0.00 0.00 0.00 0.00 0.00 0.00 0.00 0.00 0.00 0.00 0.00 0.00 0.00 0.00 0.00 0.00 0.00 0.00 0.00 0.00
0.00 0.00 0.00 0.00 0.00 0.00 0.00 0.00 0.00 0.00 0.00 0.00 0.00 0.00 0.00 0.00 0.00 0.00 0.00 0.00 0.00 0.00 0.00 0.00 0.00 0.00 0.00 0.00 0.00 0.00 0.00 0.00 0.00
0.00 0.00 0.00 0.00 0.00 0.00 0.00 0.00 0.00 0.00 0.00 0.00 0.00 0.00 0.00 0.00 0.00 0.00 0.00 0.00 0.00 0.00 0.00 0.00 0.00 0.00 0.00 0.00 0.00 0.00 0.00 0.00 0.00
0.00 0.00 0.00 0.02 0.03 0.03 0.01 0.00 0.00 0.00 0.00 0.00 0.00 0.00 0.00 0.00 0.00 0.00 0.00 0.00 0.00 0.00 0.00 0.00 0.00 0.00 0.00 0.00 0.00 0.00 0.00 0.00 0.00
0.00 0.04 0.24 0.29 0.12 0.06 0.03 0.01 0.00 0.00 0.00 0.01 0.00 0.00 0.00 0.00 0.00 0.00 0.00 0.00 0.00 0.00 0.00 0.00 0.00 0.00 0.00 0.00 0.00 0.00 0.00 0.00 0.00
0.00 0.03 0.15 0.07 0.06 0.04 0.03 0.01 0.00 0.00 0.02 0.03 0.01 0.00 0.00 0.00 0.00 0.00 0.00 0.00 0.00 0.00 0.00 0.00 0.00 0.00 0.00 0.00 0.00 0.00 0.00 0.00 0.00
0.00 0.01 0.02 0.02 0.03 0.03 0.02 0.02 0.01 0.02 0.02 0.05 0.02 0.00 0.00 0.00 0.00 0.00 0.00 0.00 0.00 0.00 0.00 0.00 0.00 0.00 0.00 0.00 0.00 0.00 0.00 0.00 0.00
0.01 0.01 0.00 0.01 0.02 0.01 0.01 0.00 0.00 0.01 0.02 0.01 0.00 0.00 0.00 0.00 0.00 0.00 0.00 0.00 0.00 0.00 0.00 0.00 0.00 0.00 0.00 0.00 0.00 0.00 0.00 0.00 0.00
0.02 0.01 0.01 0.01 0.01 0.00 0.00 0.00 0.01 0.00 0.00 0.00 0.00 0.00 0.00 0.00 0.00 0.00 0.00 0.00 0.00 0.00 0.00 0.00 0.00 0.00 0.00 0.00 0.00 0.00 0.00 0.00 0.00
0.02 0.01 0.01 0.00 0.00 0.00 0.01 0.01 0.00 0.00 0.00 0.00 0.00 0.00 0.00 0.00 0.00 0.00 0.00 0.00 0.00 0.00 0.00 0.00 0.00 0.00 0.00 0.00 0.00 0.00 0.00 0.00 0.00
0.00 0.00 0.00 0.00 0.00 0.01 0.00 0.00 0.00 0.00 0.00 0.00 0.00 0.00 0.00 0.00 0.00 0.00 0.00 0.00 0.00 0.00 0.00 0.00 0.00 0.00 0.00 0.00 0.00 0.00 0.00 0.00 0.00
0.00 0.00 0.00 0.00 0.00 0.00 0.00 0.00 0.00 0.00 0.00 0.00 0.00 0.00 0.00 0.00 0.00 0.00 0.00 0.00 0.00 0.00 0.00 0.00 0.00 0.00 0.00 0.00 0.00 0.00 0.00 0.00 0.00
MSLP
1008.06 1008.96 1009.43 1010.02 1010.54 1011.32 1012.11 1012.13 1012.50 1012.55 1013.13 1013.68 1013.96 1014.12 1014.45 1014.55 1014.74 1014.83 1015.23 1015.47 1015.75 1015.85 1015.84 1015.66 1015.54 1015.43 1015.25 1015.17 1015.13 1015.03 1015.04 1015.03 1015.01
1008.37 1008.85 1009.31 1009.63 1010.27 1011.15 1012.08 1012.45 1012.55 1012.89 1013.33 1013.91 1014.10 1014.52 1014.65 1015.02 1015.10 1015.31 1015.56 1015.90 1016.10 1016.21 1016.16 1016.15 1015.98 1015.81 1015.78 1015.74 1015.65 1015.66 1015.62 1015.54 1015.50
1008.92 1009.28 1009.55 1009.97 1010.41 1010.95 1011.47 1012.16 1012.37 1013.43 1013.82 1013.88 1014.27 1014.57 1014.94 1015.37 1015.59 1015.75 1015.96 1016.27 1016.56 1016.56 1016.57 1016.48 1016.25 1016.12 1016.01 1015.97 1015.96 1015.93 1015.88 1015.88 1015.87
1009.03 1009.49 1009.86 1010.17 1010.64 1011.15 1011.55 1012.18 1013.00 1013.05 1013.88 1014.59 1014.49 1014.96 1015.35 1015.67 1016.09 1016.30 1016.55 1016.66 1016.65 1016.73 1016.72 1016.71 1016.56 1016.41 1016.31 1016.31 1016.30 1016.26 1016.21 1016.21 1016.07
1009.26 1009.40 1009.79 1010.37 1010.82 1011.44 1012.08 1012.66 1013.08 1013.34 1014.14 1014.75 1014.70 1015.02 1015.53 1016.07 1016.50 1016.80 1017.02 1017.14 1016.99 1016.85 1016.75 1016.70 1016.53 1016.45 1016.39 1016.52 1016.61 1016.57 1016.47 1016.43 1016.26
1009.32 1009.97 1010.19 1010.86 1011.23 1011.70 1012.32 1012.89 1013.59 1014.20 1014.59 1014.98 1015.24 1015.24 1015.93 1016.63 1017.00 1017.17 1017.35 1017.47 1017.44 1017.22 1017.11 1017.07 1016.86 1016.67 1016.71 1016.82 1016.80 1016.66 1016.50 1016.39 1016.32
1009.38 1009.89 1010.11 1010.76 1011.48 1011.71 1012.22 1012.70 1013.56 1014.47 1014.75 1014.90 1015.32 1015.81 1016.56 1017.12 1017.32 1017.43 1017.59 1017.77 1017.78 1017.69 1017.57 1017.40 1017.27 1017.05 1016.98 1016.92 1016.87 1016.74 1016.64 1016.50 1016.32
1009.19 1009.69 1010.38 1010.92 1011.61 1012.36 1012.75 1013.12 1013.90 1014.38 1014.44 1014.75 1015.32 1015.90 1016.98 1017.49 1017.56 1017.73 1017.82 1017.87 1017.96 1017.96 1017.80 1017.59 1017.33 1017.12 1016.89 1016.75 1016.77 1016.79 1016.71 1016.53 1016.42
1008.61 1009.31 1010.00 1010.82 1011.65 1012.39 1012.72 1013.17 1013.75 1014.45 1014.57 1014.67 1015.68 1016.06 1017.03 1017.61 1017.86 1017.98 1018.06 1017.99 1017.95 1018.01 1017.88 1017.53 1017.25 1017.07 1016.90 1016.66 1016.73 1016.80 1016.81 1016.64 1016.57
1007.94 1008.66 1009.53 1010.27 1010.85 1011.79 1012.38 1012.86 1013.42 1014.34 1014.56 1014.51 1015.49 1016.26 1017.05 1017.52 1017.81 1018.16 1018.30 1018.26 1018.14 1017.95 1017.96 1017.77 1017.51 1017.18 1016.74 1016.66 1016.77 1016.87 1016.81 1016.60 1016.58
1007.31 1007.85 1008.69 1009.80 1010.67 1011.65 1012.41 1012.92 1013.40 1014.07 1014.47 1014.77 1015.43 1015.96 1016.78 1017.25 1017.39 1017.74 1017.97 1018.25 1018.35 1018.22 1017.98 1017.80 1017.76 1017.53 1017.22 1017.05 1016.99 1016.94 1016.79 1016.57 1016.63
1007.31 1008.18 1009.27 1010.48 1011.80 1012.88 1012.80 1012.99 1013.36 1013.92 1014.36 1014.77 1015.36 1015.73 1016.41 1016.95 1017.26 1017.59 1017.77 1017.90 1018.22 1018.15 1018.12 1018.00 1017.83 1017.77 1017.58 1017.33 1017.13 1017.16 1016.96 1016.78 1016.83
1007.42 1008.31 1009.54 1010.61 1011.11 1012.86 1013.80 1013.76 1013.81 1014.15 1014.90 1015.50 1015.80 1016.07 1016.63 1016.89 1017.13 1017.55 1017.78 1017.83 1017.92 1018.03 1018.17 1018.32 1018.05 1017.79 1017.59 1017.25 1017.18 1017.20 1017.09 1017.04 1016.99
1007.25 1007.84 1008.21 1008.31 1008.61 1011.59 1012.60 1013.74 1013.94 1014.15 1014.75 1015.33 1015.32 1015.73 1016.30 1016.54 1016.96 1017.08 1017.37 1017.61 1017.78 1017.93 1018.18 1018.20 1018.20 1017.92 1017.54 1017.32 1017.26 1017.33 1017.36 1017.28 1017.19
1007.37 1007.57 1008.15 1008.84 1010.13 1011.40 1012.60 1013.42 1014.19 1014.61 1015.13 1015.33 1015.51 1016.18 1016.59 1016.77 1016.91 1016.79 1016.80 1017.26 1017.63 1017.70 1018.00 1018.14 1018.24 1018.23 1018.17 1017.84 1017.74 1017.65 1017.61 1017.53 1017.36
1007.91 1008.55 1009.49 1009.95 1010.95 1012.15 1012.94 1013.22 1013.77 1014.61 1014.58 1014.94 1015.38 1015.89 1016.51 1016.70 1016.67 1016.76 1016.75 1017.18 1017.35 1017.59 1017.75 1017.93 1018.06 1018.28 1018.36 1018.13 1017.93 1017.87 1017.77 1017.56 1017.34
1009.30 1009.67 1010.28 1010.94 1011.72 1012.33 1012.93 1013.04 1013.52 1013.69 1014.36 1014.85 1015.43 1015.96 1016.53 1016.32 1016.51 1016.59 1016.77 1016.87 1016.82 1017.20 1017.40 1017.56 1017.77 1018.03 1018.19 1018.03 1017.95 1017.71 1017.58 1017.45 1017.29
1009.78 1010.15 1010.53 1011.09 1011.70 1012.18 1012.67 1013.10 1013.69 1014.04 1014.42 1014.69 1015.51 1015.72 1016.06 1016.18 1016.29 1016.35 1016.48 1016.43 1016.31 1016.59 1016.45 1016.67 1016.87 1017.21 1017.46 1017.44 1017.42 1017.17 1017.06 1017.09 1017.04
1010.59 1010.96 1011.36 1011.87 1012.20 1012.79 1013.25 1013.52 1013.95 1014.26 1014.39 1014.60 1015.22 1015.56 1015.92 1016.19 1016.12 1016.11 1016.13 1016.12 1016.05 1015.77 1015.61 1015.77 1016.01 1016.21 1016.42 1016.43 1016.47 1016.55 1016.66 1016.70 1016.64
1010.77 1011.33 1011.76 1012.14 1012.76 1013.34 1013.48 1013.45 1013.48 1013.88 1014.22 1014.56 1014.91 1015.32 1015.74 1015.99 1016.02 1015.83 1015.94 1016.02 1016.00 1015.88 1015.27 1015.26 1015.36 1015.51 1015.68 1015.81 1015.80 1015.98 1016.21 1016.43 1016.48
Thickness
5821 5810 5807 5799 5794 5788 5779 5782 5781 5781 5777 5762 5767 5768 5766 5766 5767 5766 5762 5758 5754 5752 5751 5751 5752 5754 5756 5758 5759 5760 5761 5762 5762
5814 5813 5807 5804 5799 5788 5780 5780 5780 5776 5772 5767 5768 5765 5764 5762 5762 5761 5758 5755 5752 5750 5750 5750 5751 5752 5753 5753 5754 5754 5754 5754 5754
5802 5805 5803 5798 5795 5791 5788 5783 5782 5769 5763 5767 5765 5763 5761 5758 5756 5755 5753 5750 5747 5748 5746 5746 5749 5750 5750 5750 5750 5750 5750 5749 5748
5797 5798 5795 5796 5794 5791 5787 5784 5776 5773 5760 5760 5764 5760 5757 5754 5750 5749 5745 5744 5745 5744 5744 5744 5745 5746 5745 5745 5745 5744 5743 5742 5743
5801 5800 5798 5795 5791 5788 5783 5777 5774 5772 5766 5761 5764 5760 5754 5749 5745 5742 5740 5738 5739 5740 5741 5741 5741 5742 5741 5739 5738 5737 5737 5736 5736
5801 5794 5794 5789 5786 5783 5778 5773 5766 5763 5760 5757 5757 5757 5750 5742 5737 5736 5734 5732 5732 5733 5734 5733 5735 5736 5734 5732 5731 5732 5732 5732 5731
5798 5794 5794 5789 5781 5782 5778 5775 5767 5758 5757 5756 5753 5748 5740 5733 5731 5729 5727 5725 5724 5724 5724 5725 5726 5727 5726 5726 5725 5725 5724 5724 5724
5797 5792 5788 5785 5779 5774 5772 5769 5762 5758 5759 5757 5751 5744 5731 5725 5724 5722 5720 5718 5716 5715 5716 5718 5719 5720 5721 5721 5720 5719 5717 5717 5716
5800 5794 5790 5785 5779 5773 5771 5768 5762 5757 5757 5756 5743 5739 5726 5718 5714 5712 5711 5711 5710 5709 5710 5713 5714 5715 5716 5716 5715 5713 5711 5711 5708
5804 5799 5792 5786 5782 5775 5771 5768 5763 5753 5753 5754 5742 5732 5722 5713 5709 5704 5701 5702 5703 5704 5703 5704 5706 5708 5711 5711 5708 5706 5705 5705 5701
5807 5805 5799 5789 5783 5775 5767 5763 5759 5751 5749 5746 5737 5729 5719 5712 5709 5704 5699 5695 5693 5694 5697 5697 5696 5697 5699 5699 5698 5697 5697 5698 5694
5806 5798 5788 5776 5765 5757 5758 5757 5754 5748 5744 5741 5732 5727 5717 5710 5705 5701 5698 5695 5690 5688 5688 5689 5689 5688 5688 5690 5690 5688 5687 5687 5683
5800 5789 5777 5761 5750 5746 5742 5743 5742 5739 5731 5723 5720 5715 5707 5703 5699 5693 5690 5689 5686 5683 5681 5678 5680 5681 5681 5683 5682 5679 5678 5676 5674
5798 5792 5788 5786 5782 5756 5748 5736 5733 5732 5725 5718 5718 5713 5704 5700 5693 5690 5685 5681 5679 5676 5673 5672 5670 5672 5673 5674 5673 5671 5670 5668 5665
5788 5789 5780 5773 5762 5751 5741 5733 5724 5719 5713 5711 5707 5699 5692 5688 5684 5684 5684 5678 5672 5671 5667 5666 5663 5662 5661 5662 5662 5662 5661 5659 5658
5776 5771 5763 5758 5748 5736 5727 5725 5719 5711 5710 5706 5701 5695 5685 5682 5679 5676 5675 5670 5668 5664 5662 5660 5657 5653 5651 5653 5653 5652 5652 5651 5651
5757 5755 5748 5742 5734 5729 5721 5721 5716 5713 5703 5698 5692 5683 5675 5676 5672 5669 5666 5664 5664 5659 5656 5653 5649 5646 5644 5644 5644 5645 5644 5643 5641
5745 5742 5739 5735 5727 5722 5716 5708 5701 5698 5694 5690 5679 5676 5671 5668 5665 5662 5659 5659 5659 5656 5656 5653 5648 5644 5642 5640 5639 5641 5640 5637 5635
5732 5726 5721 5715 5711 5704 5698 5694 5689 5685 5681 5677 5669 5667 5662 5657 5657 5655 5653 5652 5652 5653 5654 5651 5647 5644 5641 5640 5638 5636 5634 5631 5628
5719 5714 5707 5702 5695 5687 5684 5684 5683 5678 5672 5667 5664 5659 5653 5649 5648 5649 5646 5644 5644 5644 5648 5645 5642 5639 5636 5634 5634 5631 5626 5622 5619